Weather History for Missoula, MT

Change the Weather History Date:

Friday, March 15, 2013

  Actual Average Record
Temperature  
Mean Temperature 47 °F 39 °F  
Max Temperature 58 °F 50 °F 71 °F (1994)
Min Temperature 35 °F 28 °F -7 °F (1906)
Degree Days  
Heating Degree Days 18 26  
Month to date heating degree days 397 430  
Since 1 July heating degree days 5388 5799  
Cooling Degree Days 0 0  
Month to date cooling degree days 0 0  
Year to date cooling degree days 0 0  
Moisture  
Dew Point 34 °F    
Average Humidity 57    
Maximum Humidity 76    
Minimum Humidity 38    
Precipitation  
Precipitation T in 0.03 in 0.35 in (1982)
Month to date precipitation 0.24 0.45  
Year to date precipitation 1.70 2.00  
Snow  
Snow 0.00 in - - ()
Month to date snowfall 2.4  
Year to date snowfall 18.0  
Since 1 July snowfall 39.1  
Snow Depth 0.00 in    
Sea Level Pressure  
Sea Level Pressure 30.09 in    
Wind  
Wind Speed 8 mph (NW)    
Max Wind Speed 22 mph    
Max Gust Speed 33 mph    
Visibility 10 miles    
Events Rain    
T = Trace of Precipitation, MM = Missing Value Source: NWS Daily Summary

Daily Weather History Graph

Daily Weather History Graph

Search for Another Location

Airport:

Trip Planner

Search our weather history database for the weather conditions in past years. The results will help you decide how hot, cold, wet, or windy it might be!

Date:

Astronomy

Mar. 15, 2013 Rise Set
Actual Time 7:48 AM MDT 7:42 PM MDT
Civil Twilight 7:18 AM MDT 8:12 PM MDT
Nautical Twilight 6:42 AM MDT 8:48 PM MDT
Astronomical Twilight 6:06 AM MDT 9:24 PM MDT
Moon 9:24 AM MDT (3/15) No Moon Set
Length of Visible Light 12h 54m
Length of Day
11h 53m
Waxing Crescent, 16% of the Moon is Illuminated
Mar 15
Waxing Crescent
Mar 19
First Quarter
Mar 27
Full
Apr 2
Last Quarter
Apr 10
New

Hourly Weather History & Observations

Time (MDT) Temp. Windchill Dew Point Humidity Pressure Visibility Wind Dir Wind Speed Gust Speed Precip Events Conditions
12:53 AM 43.0 °F 41.3 °F 34.0 °F 71% 30.04 in 10.0 mi NNW 3.5 mph - N/A   Mostly Cloudy
1:53 AM 43.0 °F 41.3 °F 34.0 °F 71% 30.04 in 10.0 mi Variable 3.5 mph - N/A   Overcast
2:53 AM 42.8 °F - 35.6 °F 76% 30.03 in 10.0 mi Calm Calm - N/A   Overcast
3:53 AM 42.1 °F 40.2 °F 32.0 °F 67% 30.04 in 10.0 mi NW 3.5 mph - N/A   Partly Cloudy
4:53 AM 45.0 °F 37.6 °F 37.9 °F 76% 30.06 in 10.0 mi NW 17.3 mph - 0.00 in Rain Light Rain
5:53 AM 46.0 °F 39.9 °F 36.0 °F 68% 30.06 in 10.0 mi NW 13.8 mph 21.9 mph 0.00 in   Scattered Clouds
6:53 AM 46.9 °F - 36.0 °F 66% 30.08 in 10.0 mi WNW 11.5 mph - N/A   Overcast
7:53 AM 46.0 °F 41.4 °F 37.0 °F 71% 30.11 in 10.0 mi WNW 9.2 mph - N/A   Overcast
8:53 AM 46.9 °F - 37.0 °F 68% 30.12 in 10.0 mi ENE 4.6 mph - N/A   Overcast
9:53 AM 48.0 °F - 37.9 °F 68% 30.13 in 10.0 mi Calm Calm - N/A   Overcast
10:53 AM 52.0 °F - 36.0 °F 54% 30.13 in 10.0 mi Variable 3.5 mph - N/A   Mostly Cloudy
11:53 AM 51.1 °F - 36.0 °F 56% 30.14 in 10.0 mi NNW 10.4 mph - N/A   Overcast
12:53 PM 54.0 °F - 36.0 °F 51% 30.13 in 10.0 mi WSW 17.3 mph 20.7 mph N/A   Partly Cloudy
1:53 PM 55.9 °F - 35.1 °F 45% 30.12 in 10.0 mi NW 10.4 mph 19.6 mph N/A   Scattered Clouds
2:53 PM 55.9 °F - 33.1 °F 42% 30.10 in 10.0 mi NW 12.7 mph 20.7 mph N/A   Clear
3:53 PM 54.0 °F - 34.0 °F 47% 30.09 in 10.0 mi NW 10.4 mph 17.3 mph N/A   Mostly Cloudy
4:53 PM 54.0 °F - 30.9 °F 41% 30.08 in 10.0 mi West 17.3 mph 21.9 mph N/A   Mostly Cloudy
5:53 PM 54.0 °F - 28.0 °F 37% 30.08 in 10.0 mi West 16.1 mph 23.0 mph N/A   Partly Cloudy
6:53 PM 51.1 °F - 32.0 °F 48% 30.08 in 10.0 mi NW 15.0 mph - N/A   Scattered Clouds
7:53 PM 48.0 °F - 34.0 °F 58% 30.10 in 10.0 mi NNW 6.9 mph - N/A   Overcast
8:53 PM 46.9 °F - 32.0 °F 56% 30.11 in 10.0 mi NNW 8.1 mph - N/A   Mostly Cloudy
9:53 PM 43.0 °F 40.3 °F 32.0 °F 65% 30.11 in 10.0 mi WNW 4.6 mph - N/A   Clear
10:53 PM 41.0 °F 39.0 °F 30.9 °F 67% 30.09 in 10.0 mi North 3.5 mph - N/A   Partly Cloudy
11:53 PM 39.0 °F - 32.0 °F 76% 30.10 in 10.0 mi Calm Calm - N/A   Clear